Location: ActonStarParty
(42.4766°N, 71.4538°W)
Time: 11:25:27
(UTC-04:00)

ISS - All Passes

Search period start: 07 July 2015 00:00
Search period end: 17 July 2015 00:00
Orbit: 398 x 402 km, 51.6° (Epoch: 07 July)

Date Brightness Start Highest point End Pass type
(mag) Time Alt. Az. Time Alt. Az. Time Alt. Az.
07 Jul - 06:45:23 10° SSW 06:48:12 28° SE 06:51:03 10° ENE daylight
07 Jul - 08:21:26 10° W 08:24:30 39° NNW 08:27:35 10° NE daylight
07 Jul - 09:59:19 10° NW 10:01:33 17° N 10:03:46 10° NE daylight
07 Jul - 11:36:18 10° NW 11:38:47 20° NNE 11:41:17 10° ENE daylight
07 Jul - 13:12:22 10° NW 13:15:36 73° NNE 13:18:50 10° ESE daylight
07 Jul - 14:49:55 10° W 14:51:38 13° SW 14:53:16 10° SSW daylight
08 Jul - 05:52:54 10° SSE 05:54:46 15° SE 05:56:43 10° E daylight
08 Jul - 07:27:36 10° WSW 07:30:50 68° NNW 07:34:04 10° NE daylight
08 Jul - 09:05:12 10° WNW 09:07:41 20° NNW 09:10:08 10° NE daylight
08 Jul - 10:42:41 10° NW 10:44:55 17° N 10:47:11 10° NE daylight
08 Jul - 12:18:50 10° NW 12:21:56 42° NNE 12:25:02 10° E daylight
08 Jul - 13:55:27 10° WNW 13:58:12 25° SW 14:00:56 10° SSE daylight
09 Jul - 06:34:00 10° SW 06:37:13 63° SE 06:40:26 10° ENE daylight
09 Jul - 08:11:03 10° WNW 08:13:49 25° NNW 08:16:35 10° NE daylight
09 Jul - 09:48:53 10° NW 09:51:01 16° N 09:53:08 10° NE daylight
09 Jul - 11:25:19 10° NW 11:28:10 28° NNE 11:31:01 10° E daylight
09 Jul - 13:01:32 10° WNW 13:04:41 50° SW 13:07:49 10° SE daylight
10 Jul - 05:40:44 10° SSW 05:43:39 32° SE 05:46:36 10° ENE daylight
10 Jul - 07:16:58 10° W 07:20:00 36° NNW 07:23:04 10° NE daylight
10 Jul - 08:54:53 10° NW 08:57:04 17° N 08:59:16 10° NE daylight
10 Jul - 10:31:45 10° NW 10:34:18 21° NNE 10:36:53 10° ENE daylight
10 Jul - 12:07:49 10° NW 12:11:04 83° NNE 12:14:18 10° ESE daylight
10 Jul - 13:45:45 10° WSW 13:47:03 12° SW 13:48:15 10° SSW daylight
11 Jul - 04:48:00 10° S 04:50:08 17° SE 04:52:21 10° E daylight
11 Jul - 06:23:03 10° WSW 06:26:15 60° NNW 06:29:28 10° NE daylight
11 Jul - 08:00:43 10° WNW 08:03:08 19° NNW 08:05:32 10° NE daylight
11 Jul - 09:38:05 10° NW 09:40:22 18° N 09:42:40 10° NE daylight
11 Jul - 11:14:12 10° NW 11:17:21 46° NNE 11:20:29 10° ESE daylight
11 Jul - 12:50:57 10° W 12:53:34 22° SW 12:56:09 10° S daylight
12 Jul - 05:29:19 10° SW 05:32:33 73° SE 05:35:47 10° ENE daylight
12 Jul - 07:06:29 10° WNW 07:09:12 24° NNW 07:11:54 10° NE daylight
12 Jul - 08:44:15 10° NW 08:46:24 16° N 08:48:32 10° NE daylight
12 Jul - 10:20:37 10° NW 10:23:31 30° NNE 10:26:26 10° E daylight
12 Jul - 11:56:53 10° WNW 12:00:00 43° SW 12:03:04 10° SSE daylight
13 Jul - 04:35:53 10° SSW 04:38:54 36° SE 04:41:56 10° ENE visible
13 Jul - 06:12:18 10° W 06:15:18 33° NNW 06:18:18 10° NE daylight
13 Jul - 07:50:13 10° NW 07:52:23 16° N 07:54:33 10° NE daylight
13 Jul - 09:26:59 10° NW 09:29:36 22° NNE 09:32:14 10° ENE daylight
13 Jul - 11:03:04 10° WNW 11:06:19 87° SW 11:09:33 10° SE daylight
13 Jul - 12:41:45 10° WSW 12:42:15 10° SW 12:42:38 10° SW daylight
14 Jul - 03:42:57 10° S 03:45:18 19° SE 03:47:43 10° E visible
14 Jul - 05:18:15 10° WSW 05:21:27 53° NNW 05:24:39 10° NE daylight
14 Jul - 06:55:59 10° WNW 06:58:22 18° N 07:00:43 10° NE daylight
14 Jul - 08:33:17 10° NW 08:35:37 18° N 08:37:57 10° NE daylight
14 Jul - 10:09:21 10° NW 10:12:33 51° NNE 10:15:42 10° ESE daylight
14 Jul - 11:46:14 10° W 11:48:42 20° SW 11:51:07 10° S daylight
15 Jul - 04:24:25 10° SW 04:27:39 83° SE 04:30:55 10° ENE visible
15 Jul - 06:01:42 10° WNW 06:04:21 22° NNW 06:07:00 10° NE daylight
15 Jul - 07:39:24 10° NW 07:41:34 16° N 07:43:43 10° NE daylight
15 Jul - 09:15:41 10° NW 09:18:39 32° NNE 09:21:37 10° E daylight
15 Jul - 10:52:02 10° WNW 10:55:05 38° SW 10:58:05 10° SSE daylight
16 Jul - 03:30:52 10° SSW 03:33:55 41° SE 03:37:01 10° ENE visible
16 Jul - 05:07:25 10° W 05:10:22 31° NNW 05:13:19 10° NE daylight
16 Jul - 06:45:19 10° NW 06:47:28 16° N 06:49:37 10° NE daylight
16 Jul - 08:22:00 10° NW 08:24:40 23° NNE 08:27:21 10° ENE daylight
16 Jul - 09:58:06 10° WNW 10:01:21 77° SW 10:04:34 10° SE daylight
